EZY29 LPPT-LPMA

Flight info

Callsign EZY29
Flight time 1h 41m
Altitude 37000
Route ULVOT DCT GALPA DCT RAKUN
Aircraft A20N/M-SDE2E3FGHIRWXY/LB1

Departure

Time 2026-05-07 16:53
Airport Lisbon Humberto Delgado Airport (LPPT)

Arrival

Time 2026-05-07 18:34
Airport Cristiano Ronaldo International Airport (LPMA)
Time Latitude Longitude Altitude Speed Heading
2026-05-07 16:18 38.76861 -9.13704 347 ft 0 kts 78°
2026-05-07 16:40 38.76859 -9.13714 354 ft 1 kts 78°
2026-05-07 16:40 38.76859 -9.13717 356 ft 0 kts 78°
2026-05-07 16:40 38.76858 -9.13719 356 ft 1 kts 78°
2026-05-07 16:40 38.76857 -9.13729 355 ft 1 kts 78°
2026-05-07 16:41 38.76855 -9.13739 353 ft 1 kts 78°
2026-05-07 16:41 38.76854 -9.13748 352 ft 1 kts 78°
2026-05-07 16:41 38.76852 -9.13758 354 ft 1 kts 75°
2026-05-07 16:41 38.76850 -9.13769 355 ft 2 kts 69°
2026-05-07 16:42 38.76845 -9.13781 357 ft 2 kts 65°
2026-05-07 16:42 38.76841 -9.13794 353 ft 2 kts 59°
2026-05-07 16:42 38.76835 -9.13805 349 ft 2 kts 51°
2026-05-07 16:42 38.76828 -9.13815 357 ft 2 kts 36°
2026-05-07 16:43 38.76819 -9.13822 356 ft 2 kts 356°
2026-05-07 16:43 38.76816 -9.13822 347 ft 0 kts 352°
2026-05-07 16:47 38.76829 -9.13824 355 ft 7 kts 351°
2026-05-07 16:47 38.76937 -9.13857 352 ft 21 kts 343°
2026-05-07 16:47 38.77013 -9.13930 346 ft 10 kts 286°
2026-05-07 16:48 38.77005 -9.13957 348 ft 2 kts 225°
2026-05-07 16:48 38.76991 -9.13969 349 ft 0 kts 212°
2026-05-07 16:48 38.76951 -9.13993 349 ft 17 kts 202°
2026-05-07 16:48 38.76807 -9.14071 350 ft 31 kts 204°
2026-05-07 16:49 38.76639 -9.14159 354 ft 10 kts 207°
2026-05-07 16:49 38.76635 -9.14161 354 ft 0 kts 208°
2026-05-07 16:49 38.76596 -9.14195 352 ft 9 kts 227°
2026-05-07 16:49 38.76591 -9.14209 345 ft 0 kts 261°
2026-05-07 16:51 38.76591 -9.14219 348 ft 8 kts 270°
2026-05-07 16:51 38.76646 -9.14358 339 ft 21 kts 327°
2026-05-07 16:51 38.76715 -9.14351 345 ft 0 kts 20°
2026-05-07 16:52 38.76867 -9.14272 349 ft 76 kts 23°
2026-05-07 16:52 38.77695 -9.13833 383 ft 170 kts 23°
2026-05-07 16:53 38.78883 -9.13154 910 ft 211 kts 17°
2026-05-07 16:53 38.80227 -9.12386 2267 ft 210 kts 21°
2026-05-07 16:53 38.81574 -9.11507 3524 ft 228 kts 23°
2026-05-07 16:53 38.83058 -9.10477 4260 ft 256 kts 26°
2026-05-07 16:54 38.84634 -9.09324 4655 ft 264 kts 28°
2026-05-07 16:54 38.86216 -9.08129 4878 ft 263 kts 31°
2026-05-07 16:54 38.87576 -9.06556 4981 ft 267 kts 55°
2026-05-07 16:54 38.88233 -9.04339 5004 ft 270 kts 83°
2026-05-07 16:55 38.88012 -9.01979 5049 ft 274 kts 111°
2026-05-07 16:55 38.87096 -8.99818 5575 ft 276 kts 120°
2026-05-07 16:55 38.85917 -8.97910 6910 ft 271 kts 141°
2026-05-07 16:55 38.84244 -8.96804 8303 ft 276 kts 166°
2026-05-07 16:56 38.82323 -8.96743 9597 ft 281 kts 193°
2026-05-07 16:56 38.80468 -8.97603 10726 ft 291 kts 204°
2026-05-07 16:56 38.76474 -8.99922 12177 ft 334 kts 211°
2026-05-07 16:57 38.74731 -9.01827 13339 ft 336 kts 228°
2026-05-07 16:57 38.73148 -9.04105 14465 ft 340 kts 229°
2026-05-07 16:57 38.71614 -9.06371 15524 ft 344 kts 229°
2026-05-07 16:57 38.70028 -9.08709 16556 ft 349 kts 229°
2026-05-07 16:58 38.68412 -9.11071 17548 ft 355 kts 229°
2026-05-07 16:58 38.66767 -9.13459 18487 ft 360 kts 229°
2026-05-07 16:58 38.65117 -9.15842 19369 ft 364 kts 229°
2026-05-07 16:58 38.63427 -9.18277 20253 ft 368 kts 229°
2026-05-07 16:59 38.61715 -9.20740 21123 ft 373 kts 229°
2026-05-07 16:59 38.59980 -9.23235 22009 ft 377 kts 229°
2026-05-07 16:59 38.58219 -9.25768 22842 ft 382 kts 229°
2026-05-07 16:59 38.56462 -9.28292 23541 ft 387 kts 229°
2026-05-07 17:00 38.54648 -9.30899 23790 ft 388 kts 229°
2026-05-07 17:00 38.52874 -9.33444 23896 ft 389 kts 229°
2026-05-07 17:00 38.51079 -9.36020 23914 ft 389 kts 229°
2026-05-07 17:00 38.49280 -9.38599 23918 ft 389 kts 229°
2026-05-07 17:01 38.47478 -9.41180 23915 ft 389 kts 229°
2026-05-07 17:01 38.45679 -9.43754 23921 ft 389 kts 229°
2026-05-07 17:01 38.43877 -9.46330 23918 ft 389 kts 229°
2026-05-07 17:01 38.42075 -9.48901 23917 ft 388 kts 229°
2026-05-07 17:02 38.40297 -9.51434 23922 ft 388 kts 229°
2026-05-07 17:02 38.38477 -9.54030 24125 ft 393 kts 229°
2026-05-07 17:02 38.36652 -9.56632 24932 ft 392 kts 229°
2026-05-07 17:02 38.34829 -9.59226 25711 ft 394 kts 229°
2026-05-07 17:03 38.33016 -9.61803 26370 ft 398 kts 229°
2026-05-07 17:03 38.31162 -9.64438 27030 ft 401 kts 229°
2026-05-07 17:03 38.29288 -9.67098 27685 ft 405 kts 229°
2026-05-07 17:03 38.27415 -9.69754 28300 ft 408 kts 229°
2026-05-07 17:04 38.25502 -9.72465 28881 ft 411 kts 229°
2026-05-07 17:04 38.23582 -9.75184 29462 ft 414 kts 229°
2026-05-07 17:04 38.21668 -9.77891 30011 ft 418 kts 229°
2026-05-07 17:04 38.19716 -9.80651 30472 ft 421 kts 229°
2026-05-07 17:05 38.17733 -9.83451 30937 ft 425 kts 230°
2026-05-07 17:05 38.15771 -9.86221 31472 ft 426 kts 230°
2026-05-07 17:05 38.13780 -9.89027 32082 ft 425 kts 230°
2026-05-07 17:05 38.11799 -9.91817 32699 ft 424 kts 230°
2026-05-07 17:06 38.09820 -9.94600 33314 ft 423 kts 230°
2026-05-07 17:06 38.07870 -9.97343 33917 ft 422 kts 230°
2026-05-07 17:06 38.05905 -10.00103 34406 ft 422 kts 230°
2026-05-07 17:06 38.03931 -10.02874 34851 ft 423 kts 230°
2026-05-07 17:07 38.01976 -10.05618 35281 ft 423 kts 230°
2026-05-07 17:07 37.99991 -10.08399 35731 ft 423 kts 230°
2026-05-07 17:07 37.98020 -10.11160 36168 ft 423 kts 230°
2026-05-07 17:07 37.96040 -10.13931 36582 ft 423 kts 230°
2026-05-07 17:08 37.94080 -10.16671 36855 ft 423 kts 230°
2026-05-07 17:08 37.92102 -10.19434 36940 ft 421 kts 230°
2026-05-07 17:08 37.88184 -10.24900 36941 ft 421 kts 230°
2026-05-07 17:09 37.84249 -10.30381 36941 ft 420 kts 230°
2026-05-07 17:09 37.80310 -10.35856 36946 ft 421 kts 230°
2026-05-07 17:10 37.76391 -10.41294 36945 ft 420 kts 230°
2026-05-07 17:10 37.72451 -10.46753 36937 ft 419 kts 230°
2026-05-07 17:11 37.68546 -10.52154 36931 ft 418 kts 230°
2026-05-07 17:11 37.64612 -10.57587 36931 ft 417 kts 230°
2026-05-07 17:12 37.60695 -10.62988 36951 ft 420 kts 230°
2026-05-07 17:12 37.56768 -10.68391 36952 ft 420 kts 230°
2026-05-07 17:13 37.52827 -10.73805 36950 ft 419 kts 230°
2026-05-07 17:13 37.48900 -10.79193 36947 ft 419 kts 230°
2026-05-07 17:14 37.44938 -10.84619 36956 ft 420 kts 230°
2026-05-07 17:14 37.41002 -10.89999 36957 ft 420 kts 230°
2026-05-07 17:15 37.37057 -10.95384 36957 ft 420 kts 230°
2026-05-07 17:15 37.33090 -11.00789 36958 ft 420 kts 230°
2026-05-07 17:16 37.29138 -11.06164 36962 ft 419 kts 230°
2026-05-07 17:16 37.25175 -11.11546 36959 ft 419 kts 230°
2026-05-07 17:17 37.21237 -11.16883 36961 ft 419 kts 230°
2026-05-07 17:17 37.17297 -11.22216 36960 ft 418 kts 230°
2026-05-07 17:18 37.13332 -11.27574 36960 ft 418 kts 229°
2026-05-07 17:18 37.09403 -11.32874 36952 ft 417 kts 229°
2026-05-07 17:19 37.05441 -11.38210 36955 ft 417 kts 229°
2026-05-07 17:19 37.01489 -11.43523 36951 ft 417 kts 229°
2026-05-07 17:20 36.97562 -11.48794 36951 ft 416 kts 229°
2026-05-07 17:20 36.93612 -11.54087 36947 ft 416 kts 229°
2026-05-07 17:21 36.89665 -11.59368 36953 ft 416 kts 229°
2026-05-07 17:21 36.85726 -11.64629 36951 ft 416 kts 229°
2026-05-07 17:22 36.81770 -11.69906 36957 ft 416 kts 229°
2026-05-07 17:22 36.77838 -11.75141 36954 ft 416 kts 229°
2026-05-07 17:23 36.73864 -11.80423 36952 ft 415 kts 229°
2026-05-07 17:23 36.69926 -11.85650 36951 ft 415 kts 229°
2026-05-07 17:24 36.65956 -11.90910 36955 ft 415 kts 229°
2026-05-07 17:24 36.62023 -11.96113 36961 ft 415 kts 229°
2026-05-07 17:25 36.58052 -12.01357 36961 ft 415 kts 229°
2026-05-07 17:25 36.54101 -12.06567 36963 ft 415 kts 229°
2026-05-07 17:26 36.50155 -12.11762 36956 ft 415 kts 229°
2026-05-07 17:26 36.46180 -12.16986 36962 ft 415 kts 229°
2026-05-07 17:27 36.42230 -12.22171 36965 ft 414 kts 229°
2026-05-07 17:27 36.38275 -12.27354 36954 ft 414 kts 229°
2026-05-07 17:28 36.34329 -12.32516 36954 ft 414 kts 228°
2026-05-07 17:28 36.31017 -12.36842 36953 ft 414 kts 228°
2026-05-07 17:29 36.26407 -12.42855 36963 ft 413 kts 228°
2026-05-07 17:29 36.23107 -12.47152 36961 ft 413 kts 228°
2026-05-07 17:30 36.19135 -12.52316 36956 ft 413 kts 228°
2026-05-07 17:30 36.14553 -12.58264 36938 ft 413 kts 228°
2026-05-07 17:31 36.11251 -12.62544 36959 ft 412 kts 228°
2026-05-07 17:31 36.07291 -12.67669 36956 ft 412 kts 228°
2026-05-07 17:32 36.03313 -12.72810 36957 ft 412 kts 228°
2026-05-07 17:32 35.99360 -12.77909 36956 ft 412 kts 228°
2026-05-07 17:33 35.95391 -12.83022 36958 ft 412 kts 228°
2026-05-07 17:33 35.91452 -12.88089 36954 ft 411 kts 228°
2026-05-07 17:34 35.87499 -12.93165 36960 ft 411 kts 227°
2026-05-07 17:34 35.83524 -12.98262 36958 ft 411 kts 227°
2026-05-07 17:35 35.79590 -13.03298 36955 ft 410 kts 227°
2026-05-07 17:35 35.75623 -13.08369 36957 ft 410 kts 227°
2026-05-07 17:36 35.71682 -13.13400 36957 ft 410 kts 227°
2026-05-07 17:36 35.67716 -13.18454 36955 ft 409 kts 227°
2026-05-07 17:37 35.63771 -13.23474 36959 ft 409 kts 227°
2026-05-07 17:37 35.59816 -13.28499 36955 ft 409 kts 227°
2026-05-07 17:38 35.55855 -13.33524 36959 ft 408 kts 227°
2026-05-07 17:38 35.51932 -13.38493 36956 ft 408 kts 227°
2026-05-07 17:39 35.48032 -13.43450 36966 ft 388 kts 225°
2026-05-07 17:39 35.46213 -13.45755 36963 ft 372 kts 225°
2026-05-07 17:39 35.44400 -13.48042 36946 ft 377 kts 225°
2026-05-07 17:40 35.40695 -13.52708 36963 ft 381 kts 225°
2026-05-07 17:40 35.37015 -13.57341 36956 ft 381 kts 225°
2026-05-07 17:41 35.33324 -13.61981 36954 ft 381 kts 225°
2026-05-07 17:41 35.29621 -13.66629 36951 ft 382 kts 225°
2026-05-07 17:42 35.25927 -13.71259 36957 ft 382 kts 225°
2026-05-07 17:42 35.22204 -13.75920 36958 ft 382 kts 225°
2026-05-07 17:43 35.18485 -13.80569 36957 ft 382 kts 225°
2026-05-07 17:43 35.14773 -13.85203 36954 ft 383 kts 225°
2026-05-07 17:44 35.11050 -13.89845 36963 ft 383 kts 225°
2026-05-07 17:44 35.07332 -13.94475 36954 ft 383 kts 225°
2026-05-07 17:45 35.03612 -13.99101 36957 ft 383 kts 225°
2026-05-07 17:45 34.99868 -14.03750 36967 ft 383 kts 225°
2026-05-07 17:46 34.96147 -14.08366 36971 ft 384 kts 225°
2026-05-07 17:46 34.92398 -14.13009 36967 ft 384 kts 225°
2026-05-07 17:47 34.88648 -14.17646 36964 ft 384 kts 225°
2026-05-07 17:47 34.84907 -14.22268 36972 ft 384 kts 225°
2026-05-07 17:48 34.81177 -14.26868 36964 ft 384 kts 225°
2026-05-07 17:48 34.77426 -14.31488 36958 ft 384 kts 225°
2026-05-07 17:49 34.73664 -14.36115 36961 ft 385 kts 225°
2026-05-07 17:49 34.69907 -14.40731 36959 ft 385 kts 225°
2026-05-07 17:50 34.66149 -14.45340 36963 ft 385 kts 225°
2026-05-07 17:50 34.62381 -14.49957 36961 ft 385 kts 225°
2026-05-07 17:51 34.58603 -14.54579 36962 ft 386 kts 225°
2026-05-07 17:51 34.54814 -14.59208 36965 ft 386 kts 225°
2026-05-07 17:52 34.51055 -14.63794 36967 ft 387 kts 225°
2026-05-07 17:52 34.47262 -14.68415 36967 ft 387 kts 225°
2026-05-07 17:53 34.43456 -14.73043 36967 ft 388 kts 225°
2026-05-07 17:53 34.40206 -14.76993 36816 ft 385 kts 225°
2026-05-07 17:54 34.38325 -14.79278 36404 ft 381 kts 225°
2026-05-07 17:54 34.36462 -14.81541 35907 ft 376 kts 225°
2026-05-07 17:54 34.34631 -14.83762 35391 ft 371 kts 225°
2026-05-07 17:54 34.32825 -14.85951 34883 ft 366 kts 225°
2026-05-07 17:55 34.31032 -14.88124 34390 ft 361 kts 224°
2026-05-07 17:55 34.29293 -14.90230 33892 ft 356 kts 224°
2026-05-07 17:55 34.27553 -14.92337 33312 ft 351 kts 224°
2026-05-07 17:55 34.25830 -14.94421 32757 ft 347 kts 224°
2026-05-07 17:56 34.24152 -14.96448 32204 ft 342 kts 224°
2026-05-07 17:56 34.22477 -14.98471 31662 ft 338 kts 224°
2026-05-07 17:56 34.20817 -15.00475 31134 ft 334 kts 223°
2026-05-07 17:56 34.19183 -15.02445 30621 ft 330 kts 223°
2026-05-07 17:57 34.17568 -15.04393 30109 ft 326 kts 223°
2026-05-07 17:57 34.16499 -15.05680 29707 ft 324 kts 223°
2026-05-07 17:57 34.14389 -15.08215 28777 ft 323 kts 224°
2026-05-07 17:57 34.12796 -15.10128 28109 ft 322 kts 224°
2026-05-07 17:58 34.11202 -15.12042 27457 ft 321 kts 225°
2026-05-07 17:58 34.09635 -15.13922 26834 ft 320 kts 225°
2026-05-07 17:58 34.08068 -15.15800 26230 ft 319 kts 225°
2026-05-07 17:58 34.06487 -15.17695 25622 ft 318 kts 226°
2026-05-07 17:59 34.04917 -15.19575 25053 ft 318 kts 226°
2026-05-07 17:59 34.03365 -15.21432 24482 ft 317 kts 226°
2026-05-07 17:59 34.01799 -15.23306 24124 ft 314 kts 227°
2026-05-07 17:59 34.00243 -15.25170 24004 ft 317 kts 227°
2026-05-07 18:00 33.98691 -15.27029 23975 ft 318 kts 227°
2026-05-07 18:00 33.97119 -15.28911 23976 ft 318 kts 227°
2026-05-07 18:00 33.95541 -15.30798 23976 ft 318 kts 227°
2026-05-07 18:00 33.93990 -15.32651 23974 ft 318 kts 227°
2026-05-07 18:01 33.92409 -15.34540 23974 ft 319 kts 227°
2026-05-07 18:01 33.90833 -15.36421 23976 ft 320 kts 227°
2026-05-07 18:01 33.89246 -15.38315 23973 ft 320 kts 227°
2026-05-07 18:01 33.87676 -15.40187 23971 ft 321 kts 227°
2026-05-07 18:02 33.84500 -15.43970 23972 ft 321 kts 228°
2026-05-07 18:02 33.82908 -15.45865 23974 ft 322 kts 228°
2026-05-07 18:02 33.81315 -15.47761 23973 ft 323 kts 228°
2026-05-07 18:03 33.79738 -15.49638 23973 ft 323 kts 228°
2026-05-07 18:03 33.78138 -15.51542 23979 ft 324 kts 228°
2026-05-07 18:03 33.76542 -15.53439 23976 ft 324 kts 228°
2026-05-07 18:03 33.74925 -15.55362 23974 ft 325 kts 228°
2026-05-07 18:04 33.73340 -15.57245 23972 ft 325 kts 228°
2026-05-07 18:04 33.71723 -15.59164 23973 ft 325 kts 228°
2026-05-07 18:04 33.70109 -15.61079 23970 ft 326 kts 228°
2026-05-07 18:04 33.68508 -15.62978 23972 ft 326 kts 228°
2026-05-07 18:05 33.66884 -15.64902 23970 ft 327 kts 229°
2026-05-07 18:05 33.65284 -15.66797 23969 ft 327 kts 229°
2026-05-07 18:05 33.63659 -15.68721 23976 ft 328 kts 229°
2026-05-07 18:05 33.62039 -15.70636 23972 ft 328 kts 229°
2026-05-07 18:06 33.60408 -15.72565 23974 ft 328 kts 229°
2026-05-07 18:06 33.58782 -15.74486 23968 ft 328 kts 229°
2026-05-07 18:06 33.57154 -15.76409 23970 ft 329 kts 229°
2026-05-07 18:06 33.55517 -15.78326 23974 ft 330 kts 227°
2026-05-07 18:07 33.53859 -15.80183 23970 ft 330 kts 228°
2026-05-07 18:07 33.52225 -15.82105 23971 ft 330 kts 229°
2026-05-07 18:07 33.50600 -15.84044 23971 ft 330 kts 229°
2026-05-07 18:07 33.48969 -15.85982 23970 ft 330 kts 229°
2026-05-07 18:08 33.47338 -15.87909 23974 ft 330 kts 229°
2026-05-07 18:08 33.45698 -15.89837 23971 ft 331 kts 229°
2026-05-07 18:08 33.44053 -15.91764 23971 ft 331 kts 229°
2026-05-07 18:08 33.42401 -15.93697 23970 ft 331 kts 229°
2026-05-07 18:09 33.40750 -15.95627 23971 ft 332 kts 229°
2026-05-07 18:09 33.39101 -15.97554 23972 ft 332 kts 229°
2026-05-07 18:09 33.37446 -15.99486 23975 ft 332 kts 230°
2026-05-07 18:09 33.35798 -16.01411 23974 ft 332 kts 230°
2026-05-07 18:10 33.34139 -16.03346 23973 ft 333 kts 230°
2026-05-07 18:10 33.32501 -16.05255 23969 ft 333 kts 230°
2026-05-07 18:10 33.30840 -16.07191 23969 ft 333 kts 230°
2026-05-07 18:10 33.29180 -16.09124 23968 ft 334 kts 230°
2026-05-07 18:11 33.27513 -16.11065 23971 ft 334 kts 230°
2026-05-07 18:11 33.26409 -16.12350 23969 ft 333 kts 230°
2026-05-07 18:11 33.24205 -16.14912 23861 ft 332 kts 230°
2026-05-07 18:11 33.22557 -16.16827 23497 ft 331 kts 230°
2026-05-07 18:12 33.20904 -16.18746 22961 ft 329 kts 230°
2026-05-07 18:12 33.19262 -16.20651 22375 ft 327 kts 230°
2026-05-07 18:12 33.17637 -16.22537 21836 ft 324 kts 230°
2026-05-07 18:12 33.16049 -16.24378 21304 ft 322 kts 230°
2026-05-07 18:13 33.14449 -16.26234 20776 ft 319 kts 230°
2026-05-07 18:13 33.12849 -16.28087 20253 ft 317 kts 231°
2026-05-07 18:13 33.11287 -16.29895 19754 ft 315 kts 231°
2026-05-07 18:13 33.09718 -16.31712 19263 ft 314 kts 231°
2026-05-07 18:14 33.08166 -16.33507 18819 ft 311 kts 231°
2026-05-07 18:14 33.06619 -16.35295 18309 ft 308 kts 231°
2026-05-07 18:14 33.05078 -16.37075 17502 ft 305 kts 231°
2026-05-07 18:14 33.03555 -16.38837 16676 ft 304 kts 231°
2026-05-07 18:15 33.02067 -16.40558 15967 ft 300 kts 230°
2026-05-07 18:15 33.00565 -16.42292 15314 ft 295 kts 230°
2026-05-07 18:15 32.99101 -16.43984 15073 ft 300 kts 230°
2026-05-07 18:15 32.97604 -16.45712 14940 ft 298 kts 230°
2026-05-07 18:16 32.96120 -16.47420 14584 ft 295 kts 230°
2026-05-07 18:16 32.94645 -16.49120 14130 ft 295 kts 230°
2026-05-07 18:16 32.93168 -16.50820 13669 ft 293 kts 230°
2026-05-07 18:16 32.91713 -16.52465 13280 ft 289 kts 228°
2026-05-07 18:17 32.90240 -16.54032 13143 ft 274 kts 227°
2026-05-07 18:17 32.88863 -16.55467 12983 ft 255 kts 228°
2026-05-07 18:17 32.87572 -16.56819 12670 ft 244 kts 228°
2026-05-07 18:17 32.86309 -16.58159 12135 ft 242 kts 229°
2026-05-07 18:18 32.85065 -16.59494 11620 ft 242 kts 230°
2026-05-07 18:18 32.84171 -16.61090 11262 ft 229 kts 257°
2026-05-07 18:18 32.84143 -16.62914 11027 ft 221 kts 288°
2026-05-07 18:18 32.84994 -16.64446 10975 ft 229 kts 317°
2026-05-07 18:19 32.86449 -16.65253 10970 ft 236 kts 341°
2026-05-07 18:19 32.88060 -16.65603 10954 ft 238 kts 346°
2026-05-07 18:19 32.89741 -16.65703 10747 ft 242 kts 358°
2026-05-07 18:19 32.91389 -16.65279 10417 ft 250 kts 14°
2026-05-07 18:20 32.92978 -16.64361 10110 ft 254 kts 26°
2026-05-07 18:20 32.94422 -16.63197 9997 ft 257 kts 31°
2026-05-07 18:20 32.95846 -16.61889 9975 ft 258 kts 34°
2026-05-07 18:20 32.96986 -16.60200 9972 ft 267 kts 61°
2026-05-07 18:21 32.97401 -16.58034 9970 ft 273 kts 90°
2026-05-07 18:21 32.96962 -16.55847 9973 ft 273 kts 119°
2026-05-07 18:21 32.95788 -16.54145 9939 ft 266 kts 147°
2026-05-07 18:21 32.94155 -16.53221 9711 ft 256 kts 174°
2026-05-07 18:22 32.92447 -16.53200 9368 ft 244 kts 198°
2026-05-07 18:22 32.91395 -16.53637 9144 ft 237 kts 213°
2026-05-07 18:22 32.89662 -16.55178 8655 ft 231 kts 224°
2026-05-07 18:22 32.88409 -16.56373 8369 ft 230 kts 224°
2026-05-07 18:23 32.87175 -16.57531 8061 ft 228 kts 223°
2026-05-07 18:23 32.85925 -16.58697 7745 ft 227 kts 223°
2026-05-07 18:23 32.84789 -16.59960 7438 ft 221 kts 238°
2026-05-07 18:23 32.84154 -16.61586 7123 ft 216 kts 259°
2026-05-07 18:24 32.84139 -16.63359 6815 ft 215 kts 282°
2026-05-07 18:24 32.84732 -16.64965 6517 ft 217 kts 304°
2026-05-07 18:24 32.85861 -16.66172 6193 ft 223 kts 327°
2026-05-07 18:24 32.87362 -16.66719 5872 ft 232 kts 352°
2026-05-07 18:25 32.88976 -16.66418 5628 ft 241 kts 19°
2026-05-07 18:25 32.90374 -16.65318 5383 ft 242 kts 36°
2026-05-07 18:25 32.91680 -16.64063 5089 ft 241 kts 36°
2026-05-07 18:25 32.92987 -16.62817 4836 ft 239 kts 36°
2026-05-07 18:26 32.94169 -16.61458 4523 ft 241 kts 54°
2026-05-07 18:26 32.94775 -16.59620 4243 ft 241 kts 83°
2026-05-07 18:26 32.94610 -16.57657 3965 ft 237 kts 112°
2026-05-07 18:26 32.93736 -16.56029 3703 ft 232 kts 139°
2026-05-07 18:27 32.92407 -16.55054 3428 ft 226 kts 164°
2026-05-07 18:27 32.90858 -16.54849 3151 ft 222 kts 189°
2026-05-07 18:27 32.89437 -16.55423 3014 ft 218 kts 213°
2026-05-07 18:27 32.88233 -16.56529 3000 ft 217 kts 221°
2026-05-07 18:28 32.87063 -16.57641 3013 ft 218 kts 220°
2026-05-07 18:28 32.85887 -16.58742 3011 ft 208 kts 220°
2026-05-07 18:28 32.84795 -16.59767 3010 ft 192 kts 222°
2026-05-07 18:28 32.83833 -16.60764 2992 ft 177 kts 225°
2026-05-07 18:29 32.82962 -16.61710 3004 ft 164 kts 225°
2026-05-07 18:29 32.82092 -16.62661 3024 ft 187 kts 225°
2026-05-07 18:29 32.81079 -16.63766 3020 ft 197 kts 224°
2026-05-07 18:29 32.80068 -16.64849 2995 ft 200 kts 224°
2026-05-07 18:30 32.79026 -16.65960 3009 ft 201 kts 224°
2026-05-07 18:30 32.78023 -16.67025 2995 ft 182 kts 224°
2026-05-07 18:30 32.77142 -16.67955 3001 ft 157 kts 224°
2026-05-07 18:30 32.76411 -16.68721 3000 ft 126 kts 224°
2026-05-07 18:31 32.75832 -16.69418 2817 ft 122 kts 237°
2026-05-07 18:31 32.75382 -16.70303 2439 ft 121 kts 240°
2026-05-07 18:31 32.74932 -16.71125 2127 ft 120 kts 238°
2026-05-07 18:31 32.74462 -16.71928 1913 ft 117 kts 236°
2026-05-07 18:32 32.73897 -16.72647 1561 ft 122 kts 226°
2026-05-07 18:32 32.73289 -16.73316 1266 ft 116 kts 227°
2026-05-07 18:32 32.72724 -16.73982 977 ft 113 kts 226°
2026-05-07 18:32 32.72219 -16.74642 800 ft 103 kts 224°
2026-05-07 18:33 32.71702 -16.75228 639 ft 107 kts 222°
2026-05-07 18:33 32.71144 -16.75856 432 ft 111 kts 226°
2026-05-07 18:33 32.70606 -16.76493 264 ft 106 kts 225°
2026-05-07 18:33 32.70108 -16.77077 212 ft 89 kts 220°
2026-05-07 18:34 32.69714 -16.77527 198 ft 71 kts 224°
2026-05-07 18:34 32.69470 -16.77812 193 ft 35 kts 227°
2026-05-07 18:34 32.69351 -16.77950 190 ft 16 kts 212°
2026-05-07 18:34 32.69289 -16.77913 191 ft 10 kts 104°
2026-05-07 18:35 32.69297 -16.77860 191 ft 7 kts 65°
2026-05-07 18:35 32.69343 -16.77792 201 ft 14 kts 46°
2026-05-07 18:35 32.69422 -16.77693 201 ft 16 kts 44°
2026-05-07 18:35 32.69455 -16.77641 198 ft 4 kts 89°
2026-05-07 18:36 32.69447 -16.77627 194 ft 2 kts 143°
2026-05-07 18:36 32.69423 -16.77602 191 ft 6 kts 138°
2026-05-07 18:36 32.69415 -16.77593 206 ft 2 kts 138°
2026-05-07 18:36 32.69415 -16.77592 206 ft 0 kts 137°